Welcome to the New NWS' Forecast!
Most changes are behind the scenes, but click here for differences you might notice.

Regional Weather Roundup (RWR)

Issued by Gray - Portland, ME (GYX)

                            
764 
ASUS41 KGYX 232305
RWRGYX
WEATHER ROUNDUP FOR MAINE AND NEW HAMPSHIRE
NATIONAL WEATHER SERVICE GRAY ME
600 PM EST TUE JAN 23 2018

MEZ002-005-006-010-012-015-018-020-021-024-026-027-029-240000-
MAINE
  
CITY           SKY/WX    TMP DP  RH WIND       PRES   REMARKS
PORTLAND       LGT RAIN  33  33 100 CALM      29.46F FOG              
SANFORD        CLOUDY    32  32 100 CALM      29.47F                  
BAR HARBOR     RAIN      53  52  96 S22G35    29.48F FOG              
WISCASSET      LGT RAIN  33  33 100 CALM      29.49F FOG              
ROCKLAND       LGT RAIN  50  49  96 S15G30    29.45F                  
FRYEBURG       CLOUDY    32  32 100 CALM      29.47F                  
LEWISTONAUBURN MIX PCPN  32  32 100 NW5       29.47F                  
AUGUSTA        MIX PCPN  32  31  96 CALM      29.48F FOG              
WATERVILLE     MIX PCPN  32  31  96 CALM      29.43F FOG              
BANGOR         LGT RAIN  46  45  96 S16       29.46F FOG              
GREENVILLE     NOT AVBL                                               
MILLINOCKET    MIX PCPN  32  32 100 E3        29.48F FOG              
HOULTON        LGT RAIN  35  34  96 VRB7      29.48S FOG              
PRESQUE ISLE   LGT SNOW  29  27  92 N5        29.53F FOG              
FRENCHVILLE    CLOUDY    19  17  92 VRB7      29.51F                  
CARIBOU        FRZ RAIN  27  25  92 NE7       29.51F FOG              
$$

NHZ002-005-008-009-011-012-014-240000-
NEW HAMPSHIRE
  
CITY           SKY/WX    TMP DP  RH WIND       PRES   REMARKS
PORTSMOUTH     CLOUDY    33  33  98 CALM      29.47F                  
ROCHESTER      CLOUDY    33  33 100 NW6       29.46F                  
NASHUA         MOCLDY    32  32 100 CALM      29.51R                  
MANCHESTER     MOCLDY    33  33 100 CALM      29.49R                  
CONCORD        FAIR      33  31  92 CALM      29.49F                  
LACONIA        CLOUDY    32  31  96 CALM      29.47F                  
PLYMOUTH       CLOUDY    32  32  99 CALM      29.47F FOG              
BERLIN         CLOUDY    35  34  96 CALM      29.44F FOG              
WHITEFIELD     FOG       35  34  96 CALM      29.46F VSB 1/2          
JAFFREY        FOG       33  33 100 S5        29.50R VSB 1/4          
KEENE          FOG       34  33  96 CALM      29.53R VSB 3/4          
LEBANON        CLOUDY    34  33  96 SE3       29.48S FOG              
MT WASHINGTON  FOG       30  30 100 W31         N/A  VSB 1/16WCI  15  
$$

VTZ005-007-008-240000-
VERMONT
  
CITY           SKY/WX    TMP DP  RH WIND       PRES   REMARKS
ST JOHNSBURY     N/A     35  35 100 MISG      29.44F                  
MONTPELIER     FOG       33  33 100 S3        29.48S VSB 1/4          
BURLINGTON     MOCLDY    44  41  89 S9        29.43S                  
$$

MAZ007-012-024-CTZ003-RIZ002-NYZ038-NYZ072-240000-
SOUTHERN NEW ENGLAND AND NY
  
CITY           SKY/WX    TMP DP  RH WIND       PRES   REMARKS
BOSTON         DRIZZLE   39  38  96 NW9       29.50S FOG              
WORCESTER      FOG       43  42  97 W13       29.50R VSB 1/4          
NANTUCKET      FOG       46  46 100 S20       29.59S VSB 3/4          
PROVIDENCE     CLOUDY    52  52 100 SW12      29.52R FOG              
HARTFORD       LGT RAIN  38  38 100 CALM      29.56R VSB 1/4          
ALBANY         LGT RAIN  43  40  89 NW20G26   29.58R                  
NEW YORK CITY  MOCLDY    53  37  54 W17       29.61R                  
$$

ANZ081-ANZ082-ANZ150-NHZ014-MEZ023>029-240000-
COASTAL MARINE OBSERVATIONS
  
STATION/POSITION TIME  TEMP    WIND        PRES    WAVE
                       AIR SEA DIR/SP/G            HT/PER
                 (UTC) (F)     (DEG/KT/KT) (MB)    (FT/S)
MOUNT DESERT ROC 2200   50     150/ 32/ 37 1001.3F
MATINICUS ROCK   2200   49     180/ 29/ 31  999.3F
ISLE OF SHOALS   2200          310/ 18/ 19  997.9F
JEFFREYS LEDGE   2206      43                N/A     8/ 7
GEORGES BANK BUO 2150   57 60              1016.5    8/ 7
$$

.............KEY..............
   WCI - WIND CHILL
   TC  - TEMPERATURE IN CELSIUS
   VSB - VISIBILITY IN MILES
   HX  - HEAT INDEX
   FAIR- INDICATES FEW OR NO CLOUDS BELOW 12,000 FT, WITH NO 
         SIGNIFICANT WEATHER AND/OR OBSTRUCTIONS TO VISIBILITY.